Weather History for South Lake Tahoe, CA

Change the Weather History Date:

Saturday, August 11, 2012

  Actual Average Record
Temperature  
Mean Temperature 67 °F 61 °F  
Max Temperature 89 °F 81 °F 91 °F (1981)
Min Temperature 44 °F 41 °F 33 °F (2000)
Degree Days  
Heating Degree Days 0 4  
Month to date heating degree days 9 44  
Since 1 June heating degree days 435 492  
Since 1 July heating degree days 123 182  
Cooling Degree Days 2 0  
Month to date cooling degree days 13 7  
Year to date cooling degree days 18 26  
Since 1 June cooling degree days 18 26  
Growing Degree Days 16 (Base 50)    
Moisture  
Dew Point 41 °F    
Average Humidity 47    
Maximum Humidity 76    
Minimum Humidity 18    
Precipitation  
Precipitation 0.00 in - 0.54 in (2014)
Month to date precipitation 0.09  
Year to date precipitation 10.82  
Sea Level Pressure  
Sea Level Pressure 30.01 in    
Wind  
Wind Speed 3 mph (SSE)    
Max Wind Speed 18 mph    
Max Gust Speed 29 mph    
Visibility 10 miles    
Events      
T = Trace of Precipitation, MM = Missing Value Source: NWS Daily Summary

Daily Weather History Graph

Daily Weather History Graph

Search for Another Location

Airport:

Trip Planner

Search our weather history database for the weather conditions in past years. The results will help you decide how hot, cold, wet, or windy it might be!

Date:

Astronomy

Aug. 11, 2012 Rise Set
Actual Time 6:10 AM PDT 7:59 PM PDT
Civil Twilight 5:41 AM PDT 8:27 PM PDT
Nautical Twilight 5:06 AM PDT 9:02 PM PDT
Astronomical Twilight 4:29 AM PDT 9:39 PM PDT
Moon 12:43 AM PDT (8/11) 3:36 PM PDT (8/11)
Length of Visible Light 14h 46m
Length of Day
13h 48m
Waning Crescent, 31% of the Moon is Illuminated
Aug 11
Waning Crescent
Aug 17
New
Aug 24
First Quarter
Aug 31
Full
Sep 8
Last Quarter

Hourly Weather History & Observations

Time (PDT) Temp. Windchill Dew Point Humidity Pressure Visibility Wind Dir Wind Speed Gust Speed Precip Events Conditions
12:53 AM 53.1 °F - 37.0 °F 55% 30.00 in 10.0 mi Calm Calm - N/A   Clear
1:53 AM 52.0 °F - 37.0 °F 57% 30.00 in 10.0 mi Calm Calm - N/A   Clear
2:53 AM 48.9 °F - 37.0 °F 64% 30.00 in 10.0 mi Calm Calm - N/A   Clear
3:53 AM 46.9 °F - 37.0 °F 68% 30.01 in 10.0 mi SSW 3.5 mph - N/A   Clear
4:53 AM 46.9 °F - 37.0 °F 68% 30.01 in 10.0 mi Calm Calm - N/A   Clear
5:53 AM 46.0 °F - 37.0 °F 71% 30.03 in 10.0 mi Calm Calm - N/A   Clear
6:53 AM 45.0 °F 43.5 °F 37.0 °F 74% 30.05 in 10.0 mi SSW 3.5 mph - N/A   Clear
7:53 AM 55.0 °F - 41.0 °F 59% 30.05 in 10.0 mi Calm Calm - N/A   Clear
8:53 AM 66.9 °F - 42.1 °F 40% 30.03 in 10.0 mi Calm Calm - N/A   Clear
9:53 AM 75.0 °F - 39.9 °F 28% 30.01 in 10.0 mi NE 6.9 mph - N/A   Clear
10:53 AM 77.0 °F - 46.9 °F 34% 30.01 in 10.0 mi NNE 8.1 mph - N/A   Clear
11:53 AM 82.0 °F - 46.0 °F 28% 29.99 in 10.0 mi NNE 8.1 mph - N/A   Clear
12:53 PM 82.0 °F - 46.9 °F 29% 29.99 in 10.0 mi North 6.9 mph - N/A   Clear
1:53 PM 86.0 °F - 45.0 °F 24% 29.97 in 10.0 mi Calm Calm - N/A   Clear
2:53 PM 86.0 °F - 42.1 °F 21% 29.96 in 10.0 mi NNE 10.4 mph - N/A   Partly Cloudy
3:53 PM 86.0 °F - 37.9 °F 18% 29.97 in 10.0 mi Variable 3.5 mph - N/A   Clear
4:53 PM 84.9 °F - 39.9 °F 20% 30.00 in 10.0 mi SSE 16.1 mph 25.3 mph N/A   Scattered Clouds
5:53 PM 80.1 °F - 41.0 °F 25% 30.03 in 10.0 mi SSE 9.2 mph 18.4 mph N/A   Clear
6:53 PM 81.0 °F - 39.9 °F 23% 30.03 in 10.0 mi South 9.2 mph - N/A   Clear
7:53 PM 75.0 °F - 42.1 °F 31% 30.02 in 10.0 mi SSW 3.5 mph - N/A   Clear
8:53 PM 69.1 °F - 44.1 °F 40% 30.01 in 10.0 mi SSW 3.5 mph - N/A   Clear
9:53 PM 64.0 °F - 44.1 °F 48% 30.01 in 10.0 mi Calm Calm - N/A   Clear
10:53 PM 61.0 °F - 43.0 °F 52% 30.02 in 10.0 mi Calm Calm - N/A   Clear
11:53 PM 59.0 °F - 43.0 °F 55% 30.02 in 10.0 mi Calm Calm - N/A   Clear